Regional Weather Roundup
Issued by NWS

Home | Current Version | Previous Version | Graphics & Text | Print | Product List | Glossary On
Versions: 1 2 3 4 5 6 7 8 9 10 11 12 13 14 15 16 17 18 19 20 21 22 23 24 25 26 27 28 29 30 31 32 33 34 35 36 37 38 39 40 41 42 43 44 45 46 47 48 49 50
000
ASUS45 KSLC 041610
RWRUT
UTAH REGIONAL WEATHER ROUNDUP
NATIONAL WEATHER SERVICE SALT LAKE CITY UT
1000 AM MDT TUE AUG 04 2015

UTZ001>011-023>025-041700-

NORTHERN UTAH

CITY           SKY/WX    TMP DP  RH WIND       PRES   REMARKS
BRIGHAM CITY   SUNNY     67  57  71 N3        30.13S
HILL AFB       SUNNY     67  55  65 E13       30.14F
LOGAN          PTSUNNY   63  56  78 CALM      30.15F
OGDEN          SUNNY     73  54  51 NE5       30.12F
PROVO AIRPORT  MOSUNNY   66  54  63 VRB5      30.15F
SALT LAKE CITY MOSUNNY   71  54  54 CALM      30.12S
VERNAL         SUNNY     68  50  52 E6        30.19S
WENDOVER       SUNNY     72  54  53 SW3       30.12S
HEBER CITY     SUNNY     59  50  72 CALM      30.23F
WEST JORDAN    SUNNY     70  54  56 E5        30.14S

$$

UTZ012>022-026-027-041700-

SOUTHERN/CENTRAL UTAH

CITY           SKY/WX    TMP DP  RH WIND       PRES   REMARKS
BLANDING       SUNNY     74  47  37 S5        30.31S
BRYCE CANYON   SUNNY     70  44  39 SE6       30.36S
CEDAR CITY     SUNNY     78  39  24 SW5       30.18S
DELTA          SUNNY     69  51  52 MISG      30.13F
HANKSVILLE     SUNNY     72  55  56 CALM      30.16S
MILFORD        SUNNY     74  50  42 S8        30.14S
MOAB/CYNLANDS  SUNNY     73  57  57 SE7       30.14S
PRICE          SUNNY     72  49  44 S5        30.23S
ST GEORGE      SUNNY     82  43  24 NW5       30.02S
KANAB          SUNNY     81  41  24 CALM      30.22S

$$

REGIONAL REPORTS     COLORADO/ARIZONA

CITY           SKY/WX    TMP DP  RH WIND       PRES   REMARKS
CRAIG, CO      NOT AVBL
GRAND JUNCTION SUNNY     71  50  47 VRB6      30.17F
RIFLE          SUNNY     69  51  52 CALM      30.21F
MONTROSE       SUNNY     72  48  42 CALM      30.24F
CORTEZ         SUNNY     72  50  45 S3        30.24S
PAGE, AZ       SUNNY     81  49  32 N5        30.11F
GRAND CANYON   SUNNY     76  36  23 S6        30.31S
KINGMAN        SUNNY     90  39  16 W6        30.04S
FLAGSTAFF      SUNNY     73  36  25 SW7       30.35S

$$

REGIONAL REPORTS    NEVADA/IDAHO/WYOMING

CITY           SKY/WX    TMP DP  RH WIND       PRES   REMARKS
LAS VEGAS, NV  NOT AVBL
ELY            SUNNY     71  43  36 CALM      30.21S
ELKO           SUNNY     71  45  39 CALM      30.12F
POCATELLO, ID  SUNNY     70  56  61 N5        30.13S
BURLEY         SUNNY     71  50  47 VRB3      30.08S
EVANSTON, WY   SUNNY     62  49  62 SW10      30.29S
ROCK SPRINGS   MOSUNNY   61  49  64 SW18      30.24S
KEMMERER       SUNNY     59  50  72 W7        30.30S

$$


USA.gov is the U.S. government's official web portal to all federal, state and local government web resources and services.